KESWICK RESERVOIR (KES)

Elevation: 596' · SACRAMENTO R basin · Operator: US Bureau of Reclamation

Provisional data, subject to change.
Query executed Tuesday at 18:35:29   clock

Select a sensor type for a plot of data.
Note: Reservoir Flows are daily averages.

Earlier

Date RES ELE    STORAGE    RES CHG    OUTFLOW    INFLOW   
 FEET   AF   AF   CFS   CFS  
06/23/2014 580.52 19824 -247 9873 9755
06/24/2014 582.74 21128 1304 9925 10589
06/25/2014 583.49 21580 452 9942 10177
06/26/2014 582.76 21140 -440 10143 9924
06/27/2014 582.72 21116 -24 9696 9690
06/28/2014 582.19 20799 -317 9671 9517
06/29/2014 582.63 21062 263 9650 9789
06/30/2014 583.79 21763 701 9441 9801
07/01/2014 584.88 22433 670 9244 9591
07/02/2014 583.30 21465 -968 9251 8771
07/03/2014 583.31 21471 6 9248 9259
07/04/2014 584.53 22217 746 9252 9628
07/05/2014 584.93 22464 247 9243 9377
07/06/2014 584.95 22476 12 9242 9256
07/07/2014 584.93 22464 -12 9263 9267
07/08/2014 584.16 21989 -475 9253 9022
07/09/2014 583.28 21453 -536 9217 8955
07/10/2014 584.12 21964 511 9077 9341
07/11/2014 584.31 22081 117 9204 9271
07/12/2014 583.68 21696 -385 9285 9096
07/13/2014 583.88 21817 121 9238 9307
07/14/2014 584.11 21958 141 9359 9437
07/15/2014 583.21 21410 -548 9221 8952
07/16/2014 583.73 21726 316 9193 9358
07/17/2014 584.37 22118 392 9230 9434
07/18/2014 584.20 22013 -105 9207 9160
07/19/2014 583.66 21684 -329 9277 9117
07/20/2014 582.97 21265 -419 9275 9072
07/21/2014 583.79 21763 498 9300 9557
07/22/2014 -- -- -- -- --

Later | Latest

Warning! This data is preliminary and subject to revision.

Download Data Now Download Data Now | Show KES Map | Plot KES Data | 1 Month KES Data | Real-Time KES Data | KES Info